| time (UTC) | temp F | wind direction | speed knots | gust knots | rain 1hr in | rain 24hr in | rain mn in | humidity % | barometer mb |
| 20260505101927 | 62 | 48 | 0.9 | 1.7 | 0.00 | 0.00 | 0.00 | 71 | 1010.5 |
| 20260505101421 | 62 | 319 | 0.0 | 0.9 | 0.00 | 0.00 | 0.00 | 71 | 1010.4 |
| 20260505100916 | 62 | 3 | 0.0 | 0.0 | 0.00 | 0.00 | 0.00 | 70 | 1010.3 |
| 20260505100414 | 62 | 0 | 0.0 | 0.9 | 0.00 | 0.00 | 0.00 | 70 | 1010.1 |
| 20260505095909 | 62 | 276 | 0.0 | 0.0 | 0.00 | 0.00 | 0.00 | 69 | 1010.3 |
| 20260505095407 | 62 | 324 | 1.7 | 2.6 | 0.00 | 0.00 | 0.00 | 69 | 1010.0 |
| 20260505094903 | 62 | 180 | 0.0 | 0.0 | 0.00 | 0.00 | 0.00 | 69 | 1009.7 |
| 20260505094400 | 62 | 84 | 0.0 | 0.0 | 0.00 | 0.00 | 0.00 | 69 | 1009.3 |
| 20260505093855 | 62 | 98 | 0.0 | 0.0 | 0.00 | 0.00 | 0.00 | 69 | 1009.5 |
| 20260505093353 | 62 | 89 | 0.0 | 0.0 | 0.00 | 0.00 | 0.00 | 69 | 1009.3 |
| 20260505092850 | 62 | 131 | 0.0 | 0.0 | 0.00 | 0.00 | 0.00 | 68 | 1009.0 |
| 20260505092348 | 62 | 124 | 0.0 | 0.0 | 0.00 | 0.00 | 0.00 | 68 | 1009.0 |
| 20260505091845 | 63 | 138 | 0.0 | 0.0 | 0.00 | 0.00 | 0.00 | 67 | 1008.9 |
| 20260505091343 | 63 | 115 | 1.7 | 2.6 | 0.00 | 0.00 | 0.00 | 68 | 1008.7 |
| 20260505090841 | 63 | 167 | 2.6 | 4.3 | 0.00 | 0.00 | 0.00 | 67 | 1008.7 |
| 20260505090339 | 63 | 220 | 2.6 | 2.6 | 0.00 | 0.00 | 0.00 | 67 | 1008.3 |
| 20260505085835 | 63 | 166 | 1.7 | 1.7 | 0.00 | 0.00 | 0.00 | 67 | 1008.5 |
| 20260505085334 | 63 | 136 | 0.9 | 1.7 | 0.00 | 0.00 | 0.00 | 67 | 1008.2 |
| 20260505084831 | 63 | 172 | 1.7 | 2.6 | 0.00 | 0.00 | 0.00 | 67 | 1008.2 |
| 20260505084329 | 63 | 139 | 2.6 | 4.3 | 0.00 | 0.00 | 0.00 | 67 | 1008.3 |
| 20260505083826 | 63 | 177 | 2.6 | 2.6 | 0.00 | 0.00 | 0.00 | 67 | 1008.5 |
| 20260505083324 | 63 | 148 | 2.6 | 4.3 | 0.00 | 0.00 | 0.00 | 66 | 1008.5 |
| 20260505082820 | 63 | 144 | 1.7 | 2.6 | 0.00 | 0.00 | 0.00 | 66 | 1008.5 |
| 20260505082316 | 63 | 159 | 2.6 | 2.6 | 0.00 | 0.00 | 0.00 | 67 | 1008.5 |
| 20260505081813 | 63 | 170 | 5.2 | 7.0 | 0.00 | 0.00 | 0.00 | 67 | 1007.9 |
| 20260505081310 | 63 | 162 | 2.6 | 4.3 | 0.00 | 0.00 | 0.00 | 67 | 1008.2 |
| 20260505080806 | 63 | 144 | 2.6 | 2.6 | 0.00 | 0.00 | 0.00 | 66 | 1007.9 |
| 20260505080303 | 64 | 172 | 1.7 | 4.3 | 0.00 | 0.00 | 0.00 | 66 | 1008.1 |
| 20260505075758 | 64 | 222 | 2.6 | 4.3 | 0.00 | 0.00 | 0.00 | 66 | 1007.8 |
| 20260505075255 | 64 | 153 | 1.7 | 2.6 | 0.00 | 0.00 | 0.00 | 67 | 1008.0 |
| 20260505074753 | 64 | 170 | 1.7 | 1.7 | 0.00 | 0.00 | 0.00 | 66 | 1007.8 |
| 20260505074250 | 64 | 175 | 0.0 | 0.0 | 0.00 | 0.00 | 0.00 | 65 | 1008.0 |
| 20260505073747 | 64 | 182 | 0.9 | 1.7 | 0.00 | 0.00 | 0.00 | 65 | 1008.0 |
| 20260505073245 | 64 | 177 | 1.7 | 1.7 | 0.00 | 0.00 | 0.00 | 66 | 1008.0 |
| 20260505072741 | 64 | 109 | 4.3 | 5.2 | 0.00 | 0.00 | 0.00 | 66 | 1007.7 |
| 20260505072237 | 64 | 152 | 0.0 | 0.9 | 0.00 | 0.00 | 0.00 | 66 | 1007.7 |
| 20260505071733 | 63 | 164 | 2.6 | 4.3 | 0.00 | 0.00 | 0.00 | 67 | 1008.0 |
| 20260505071230 | 63 | 158 | 0.0 | 0.0 | 0.00 | 0.00 | 0.00 | 67 | 1007.8 |
| 20260505070728 | 63 | 166 | 0.0 | 0.0 | 0.00 | 0.00 | 0.00 | 67 | 1007.9 |
| 20260505070224 | 63 | 165 | 0.0 | 0.0 | 0.00 | 0.00 | 0.00 | 67 | 1007.9 |
| 20260505065720 | 63 | 142 | 0.0 | 0.0 | 0.00 | 0.00 | 0.00 | 68 | 1008.1 |
| 20260505065217 | 63 | 163 | 0.0 | 0.0 | 0.00 | 0.00 | 0.00 | 68 | 1007.9 |
| 20260505064714 | 63 | 158 | 1.7 | 1.7 | 0.00 | 0.00 | 0.00 | 67 | 1008.0 |
| 20260505064212 | 63 | 164 | 2.6 | 2.6 | 0.00 | 0.00 | 0.00 | 67 | 1007.8 |
| 20260505063709 | 63 | 167 | 2.6 | 2.6 | 0.00 | 0.00 | 0.00 | 67 | 1008.0 |
| 20260505063205 | 63 | 142 | 0.9 | 1.7 | 0.00 | 0.00 | 0.00 | 68 | 1008.0 |
| 20260505062701 | 63 | 141 | 3.5 | 4.3 | 0.00 | 0.00 | 0.00 | 68 | 1008.1 |
| 20260505062159 | 63 | 163 | 0.9 | 4.3 | 0.00 | 0.00 | 0.00 | 68 | 1007.8 |
| 20260505061656 | 63 | 156 | 0.0 | 0.0 | 0.00 | 0.00 | 0.00 | 67 | 1007.8 |
| 20260505061154 | 63 | 149 | 0.0 | 0.0 | 0.00 | 0.00 | 0.00 | 68 | 1007.9 |
| 20260505060651 | 63 | 167 | 0.0 | 0.0 | 0.00 | 0.00 | 0.00 | 68 | 1007.8 |
| 20260505060148 | 63 | 178 | 3.5 | 6.1 | 0.00 | 0.00 | 0.00 | 67 | 1007.6 |
| 20260505055643 | 63 | 141 | 2.6 | 2.6 | 0.00 | 0.00 | 0.00 | 67 | 1007.8 |
| 20260505055140 | 64 | 140 | 2.6 | 4.3 | 0.00 | 0.00 | 0.00 | 67 | 1007.9 |
| 20260505054637 | 64 | 140 | 2.6 | 2.6 | 0.00 | 0.00 | 0.00 | 68 | 1007.7 |
| 20260505054135 | 64 | 148 | 4.3 | 5.2 | 0.00 | 0.00 | 0.00 | 67 | 1007.8 |
| 20260505053633 | 64 | 143 | 3.5 | 4.3 | 0.00 | 0.00 | 0.00 | 67 | 1007.6 |
| 20260505053129 | 64 | 146 | 2.6 | 2.6 | 0.00 | 0.00 | 0.00 | 67 | 1007.6 |
| 20260505052626 | 64 | 142 | 3.5 | 4.3 | 0.00 | 0.00 | 0.00 | 67 | 1007.9 |
| 20260505052123 | 64 | 177 | 0.0 | 0.0 | 0.00 | 0.00 | 0.00 | 67 | 1007.7 |
| 20260505051620 | 64 | 154 | 0.0 | 0.0 | 0.00 | 0.00 | 0.00 | 67 | 1007.6 |
| 20260505051118 | 64 | 170 | 0.0 | 0.0 | 0.00 | 0.00 | 0.00 | 67 | 1007.7 |
| 20260505050616 | 64 | 157 | 0.0 | 0.0 | 0.00 | 0.00 | 0.00 | 67 | 1007.7 |
| 20260505050114 | 64 | 138 | 0.0 | 0.0 | 0.00 | 0.00 | 0.00 | 67 | 1007.9 |
| 20260505041544 | 65 | 140 | 0.0 | 0.0 | 0.00 | 0.00 | 0.00 | 66 | 1008.1 |
| 20260505041041 | 64 | 160 | 0.0 | 0.0 | 0.00 | 0.00 | 0.00 | 66 | 1008.2 |
| 20260505040538 | 65 | 146 | 1.7 | 1.7 | 0.00 | 0.00 | 0.00 | 66 | 1008.3 |
| 20260505040035 | 65 | 159 | 1.7 | 1.7 | 0.00 | 0.00 | 0.00 | 67 | 1008.2 |
| 20260505035531 | 65 | 160 | 1.7 | 1.7 | 0.00 | 0.00 | 0.00 | 67 | 1008.6 |
| 20260505035028 | 65 | 157 | 0.0 | 0.0 | 0.00 | 0.00 | 0.00 | 67 | 1008.2 |
| 20260505034524 | 65 | 145 | 0.0 | 0.0 | 0.00 | 0.00 | 0.00 | 67 | 1008.3 |
| 20260505034021 | 65 | 171 | 0.0 | 0.0 | 0.00 | 0.00 | 0.00 | 66 | 1008.1 |
| 20260505033519 | 65 | 150 | 0.0 | 0.0 | 0.00 | 0.00 | 0.00 | 66 | 1008.0 |
| 20260505033017 | 65 | 143 | 0.0 | 0.0 | 0.00 | 0.00 | 0.00 | 66 | 1008.1 |
| 20260505032514 | 66 | 130 | 0.0 | 0.0 | 0.00 | 0.00 | 0.00 | 66 | 1008.1 |
| 20260505032010 | 66 | 163 | 0.0 | 0.0 | 0.00 | 0.00 | 0.00 | 65 | 1007.9 |
| 20260505031508 | 66 | 154 | 0.0 | 0.0 | 0.00 | 0.00 | 0.00 | 66 | 1007.8 |
| 20260505031004 | 66 | 143 | 0.0 | 0.0 | 0.00 | 0.00 | 0.00 | 66 | 1007.9 |
| 20260505030501 | 66 | 154 | 0.0 | 0.0 | 0.00 | 0.00 | 0.00 | 66 | 1007.7 |
| 20260505025955 | 66 | 136 | 0.0 | 0.0 | 0.00 | 0.00 | 0.00 | 66 | 1007.7 |
| 20260505025453 | 66 | 142 | 0.0 | 0.0 | 0.00 | 0.00 | 0.00 | 66 | 1007.8 |
| 20260505024952 | 66 | 144 | 0.0 | 0.0 | 0.00 | 0.00 | 0.00 | 66 | 1007.8 |
| 20260505024448 | 66 | 140 | 0.0 | 0.0 | 0.00 | 0.00 | 0.00 | 66 | 1007.8 |
| 20260505023946 | 66 | 133 | 0.0 | 0.0 | 0.00 | 0.00 | 0.00 | 66 | 1007.8 |
| 20260505023443 | 66 | 134 | 0.0 | 0.0 | 0.00 | 0.00 | 0.00 | 67 | 1007.5 |
| 20260505022940 | 66 | 125 | 0.0 | 0.0 | 0.00 | 0.00 | 0.00 | 66 | 1007.5 |
| 20260505022438 | 66 | 116 | 0.0 | 0.0 | 0.00 | 0.00 | 0.00 | 66 | 1007.6 |
| 20260505021935 | 67 | 137 | 0.0 | 0.0 | 0.00 | 0.00 | 0.00 | 65 | 1007.1 |
| 20260505021431 | 67 | 122 | 0.0 | 0.0 | 0.00 | 0.00 | 0.00 | 64 | 1007.3 |
| 20260505020927 | 67 | 134 | 0.0 | 0.0 | 0.00 | 0.00 | 0.00 | 64 | 1006.9 |
| 20260505020422 | 67 | 131 | 0.0 | 0.0 | 0.00 | 0.00 | 0.00 | 64 | 1006.9 |
| 20260505015919 | 67 | 148 | 0.0 | 0.0 | 0.00 | 0.00 | 0.00 | 63 | 1006.7 |
| 20260505015416 | 68 | 131 | 0.0 | 0.0 | 0.00 | 0.00 | 0.00 | 63 | 1006.4 |
| 20260505014914 | 68 | 148 | 0.0 | 0.0 | 0.00 | 0.00 | 0.00 | 63 | 1006.7 |
| 20260505014410 | 68 | 165 | 0.0 | 0.0 | 0.00 | 0.00 | 0.00 | 63 | 1006.5 |
| 20260505013907 | 68 | 157 | 0.0 | 0.0 | 0.00 | 0.00 | 0.00 | 62 | 1006.6 |
| 20260505013404 | 68 | 145 | 0.0 | 0.0 | 0.00 | 0.00 | 0.00 | 62 | 1006.4 |
| 20260505012902 | 68 | 133 | 0.0 | 0.0 | 0.00 | 0.00 | 0.00 | 62 | 1006.5 |
| 20260505012400 | 68 | 138 | 0.0 | 0.0 | 0.00 | 0.00 | 0.00 | 62 | 1006.8 |
| 20260505011856 | 69 | 154 | 0.0 | 0.0 | 0.00 | 0.00 | 0.00 | 61 | 1006.4 |
| 20260505011353 | 69 | 150 | 0.0 | 0.0 | 0.00 | 0.00 | 0.00 | 59 | 1006.5 |
| 20260505010849 | 69 | 137 | 0.0 | 0.0 | 0.00 | 0.00 | 0.00 | 59 | 1006.3 |
| 20260505010345 | 69 | 126 | 0.0 | 0.0 | 0.00 | 0.00 | 0.00 | 59 | 1006.4 |
| 20260505005841 | 69 | 143 | 0.0 | 0.0 | 0.00 | 0.00 | 0.00 | 59 | 1006.5 |
| 20260505005338 | 70 | 134 | 0.0 | 0.0 | 0.00 | 0.00 | 0.00 | 58 | 1006.6 |
| 20260505004836 | 70 | 138 | 0.0 | 0.0 | 0.00 | 0.00 | 0.00 | 57 | 1006.5 |
| 20260505004332 | 71 | 112 | 0.0 | 0.0 | 0.00 | 0.00 | 0.00 | 57 | 1006.7 |
| 20260505003830 | 71 | 167 | 0.0 | 0.0 | 0.00 | 0.00 | 0.00 | 57 | 1006.7 |
| 20260505003327 | 71 | 160 | 0.0 | 0.0 | 0.00 | 0.00 | 0.00 | 57 | 1006.8 |
| 20260505002822 | 71 | 110 | 0.0 | 0.0 | 0.00 | 0.00 | 0.00 | 56 | 1006.6 |
| 20260505002320 | 71 | 168 | 0.0 | 0.0 | 0.00 | 0.00 | 0.00 | 56 | 1006.6 |
| 20260505001818 | 72 | 138 | 0.0 | 0.0 | 0.00 | 0.00 | 0.00 | 54 | 1006.8 |
| 20260505001314 | 72 | 90 | 0.0 | 0.0 | 0.00 | 0.00 | 0.00 | 53 | 1006.6 |
| 20260505000812 | 73 | 159 | 1.7 | 1.7 | 0.00 | 0.00 | 0.00 | 54 | 1006.8 |
| 20260505000310 | 73 | 158 | 2.6 | 2.6 | 0.00 | 0.00 | 0.00 | 53 | 1006.6 |
| 20260504235806 | 73 | 161 | 1.7 | 1.7 | 0.00 | 0.00 | 0.00 | 53 | 1006.5 |
| 20260504235304 | 73 | 149 | 0.0 | 0.0 | 0.00 | 0.00 | 0.00 | 52 | 1006.5 |
| 20260504234759 | 74 | 165 | 0.0 | 0.0 | 0.00 | 0.00 | 0.00 | 52 | 1006.5 |
| 20260504234257 | 74 | 175 | 2.6 | 2.6 | 0.00 | 0.00 | 0.00 | 52 | 1006.9 |
| 20260504233753 | 74 | 132 | 1.7 | 1.7 | 0.00 | 0.00 | 0.00 | 52 | 1006.8 |
| 20260504233249 | 74 | 145 | 2.6 | 5.2 | 0.00 | 0.00 | 0.00 | 52 | 1007.1 |
| 20260504232746 | 75 | 157 | 2.6 | 4.3 | 0.00 | 0.00 | 0.00 | 52 | 1007.1 |
| 20260504232243 | 75 | 235 | 2.6 | 4.3 | 0.00 | 0.00 | 0.00 | 51 | 1007.1 |
| 20260504231740 | 75 | 119 | 0.0 | 0.0 | 0.00 | 0.00 | 0.00 | 52 | 1007.0 |
| 20260504231236 | 75 | 163 | 0.0 | 0.0 | 0.00 | 0.00 | 0.00 | 52 | 1007.3 |
| 20260504230732 | 74 | 143 | 2.6 | 4.3 | 0.00 | 0.00 | 0.00 | 52 | 1007.5 |
| 20260504230231 | 74 | 64 | 1.7 | 1.7 | 0.00 | 0.00 | 0.00 | 52 | 1007.5 |
| 20260504225730 | 74 | 182 | 0.0 | 0.0 | 0.00 | 0.00 | 0.00 | 52 | 1007.4 |
| 20260504225225 | 75 | 117 | 0.0 | 0.0 | 0.00 | 0.00 | 0.00 | 52 | 1007.6 |
| 20260504224723 | 75 | 157 | 4.3 | 5.2 | 0.00 | 0.00 | 0.00 | 50 | 1007.5 |
| 20260504224220 | 75 | 156 | 3.5 | 5.2 | 0.00 | 0.00 | 0.00 | 51 | 1007.7 |
| 20260504223716 | 75 | 147 | 2.6 | 4.3 | 0.00 | 0.00 | 0.00 | 52 | 1007.8 |
| 20260504223212 | 75 | 5 | 0.0 | 0.9 | 0.00 | 0.00 | 0.00 | 51 | 1007.8 |
| 20260504222709 | 75 | 165 | 0.0 | 0.0 | 0.00 | 0.00 | 0.00 | 50 | 1007.8 |
| 20260504222206 | 75 | 167 | 4.3 | 5.2 | 0.00 | 0.00 | 0.00 | 49 | 1008.0 |
| 20260504221703 | 76 | 183 | 0.0 | 0.0 | 0.00 | 0.00 | 0.00 | 48 | 1007.8 |
| 20260504221200 | 77 | 177 | 2.6 | 4.3 | 0.00 | 0.00 | 0.00 | 48 | 1007.9 |
| 20260504220656 | 77 | 166 | 0.9 | 2.6 | 0.00 | 0.00 | 0.00 | 47 | 1007.8 |
| 20260504220154 | 77 | 147 | 0.9 | 1.7 | 0.00 | 0.00 | 0.00 | 46 | 1008.2 |
| 20260504215650 | 77 | 160 | 3.5 | 4.3 | 0.00 | 0.00 | 0.00 | 46 | 1008.0 |
| 20260504215148 | 77 | 156 | 5.2 | 7.0 | 0.00 | 0.00 | 0.00 | 45 | 1007.9 |
| 20260504214643 | 77 | 185 | 0.9 | 0.9 | 0.00 | 0.00 | 0.00 | 47 | 1008.1 |
| 20260504214140 | 77 | 126 | 0.0 | 0.0 | 0.00 | 0.00 | 0.00 | 47 | 1007.9 |
| 20260504213637 | 78 | 196 | 1.7 | 4.3 | 0.00 | 0.00 | 0.00 | 46 | 1007.7 |
| 20260504213133 | 77 | 192 | 5.2 | 8.7 | 0.00 | 0.00 | 0.00 | 47 | 1008.2 |
| 20260504212630 | 78 | 155 | 0.0 | 0.0 | 0.00 | 0.00 | 0.00 | 48 | 1008.1 |
| 20260504212127 | 77 | 184 | 0.0 | 0.0 | 0.00 | 0.00 | 0.00 | 49 | 1008.1 |
| 20260504211624 | 77 | 317 | 0.0 | 0.0 | 0.00 | 0.00 | 0.00 | 48 | 1008.3 |
| 20260504211120 | 76 | 334 | 0.9 | 0.9 | 0.00 | 0.00 | 0.00 | 49 | 1008.1 |
| 20260504210619 | 76 | 119 | 1.7 | 1.7 | 0.00 | 0.00 | 0.00 | 48 | 1008.2 |
| 20260504210114 | 78 | 22 | 1.7 | 1.7 | 0.00 | 0.00 | 0.00 | 47 | 1008.0 |
| 20260504205612 | 78 | 307 | 1.7 | 4.3 | 0.00 | 0.00 | 0.00 | 48 | 1008.1 |
| 20260504205110 | 79 | 24 | 3.5 | 6.1 | 0.00 | 0.00 | 0.00 | 47 | 1008.1 |
| 20260504204608 | 78 | 158 | 0.0 | 0.0 | 0.00 | 0.00 | 0.00 | 47 | 1008.0 |
| 20260504204107 | 77 | 149 | 6.1 | 7.0 | 0.00 | 0.00 | 0.00 | 47 | 1008.2 |
| 20260504203605 | 77 | 143 | 0.0 | 0.0 | 0.00 | 0.00 | 0.00 | 51 | 1008.1 |
| 20260504203102 | 77 | 157 | 3.5 | 6.1 | 0.00 | 0.00 | 0.00 | 48 | 1008.1 |
| 20260504202557 | 78 | 165 | 2.6 | 4.3 | 0.00 | 0.00 | 0.00 | 48 | 1008.0 |
| 20260504202054 | 78 | 184 | 0.0 | 0.0 | 0.00 | 0.00 | 0.00 | 51 | 1008.1 |
| 20260504201551 | 78 | 158 | 0.0 | 0.0 | 0.00 | 0.00 | 0.00 | 49 | 1008.5 |
| 20260504201049 | 78 | 129 | 2.6 | 2.6 | 0.00 | 0.00 | 0.00 | 49 | 1008.2 |
| 20260504200544 | 77 | 166 | 0.0 | 0.0 | 0.00 | 0.00 | 0.00 | 50 | 1008.2 |
| 20260504200036 | 77 | 147 | 1.7 | 2.6 | 0.00 | 0.00 | 0.00 | 50 | 1008.6 |
| 20260504195532 | 77 | 154 | 2.6 | 2.6 | 0.00 | 0.00 | 0.00 | 52 | 1008.5 |
| 20260504195029 | 76 | 176 | 0.0 | 0.0 | 0.00 | 0.00 | 0.00 | 52 | 1009.0 |
| 20260504194525 | 76 | 50 | 0.9 | 1.7 | 0.00 | 0.00 | 0.00 | 55 | 1009.0 |
| 20260504194020 | 77 | 175 | 0.0 | 0.0 | 0.00 | 0.00 | 0.00 | 53 | 1008.9 |
| 20260504193518 | 77 | 14 | 0.0 | 0.0 | 0.00 | 0.00 | 0.00 | 51 | 1008.9 |
| 20260504193017 | 76 | 166 | 4.3 | 6.1 | 0.00 | 0.00 | 0.00 | 53 | 1009.2 |
| 20260504192514 | 77 | 174 | 4.3 | 6.1 | 0.00 | 0.00 | 0.00 | 51 | 1009.0 |
| 20260504192012 | 77 | 102 | 1.7 | 1.7 | 0.00 | 0.00 | 0.00 | 53 | 1009.3 |
| 20260504191510 | 77 | 138 | 0.0 | 0.0 | 0.00 | 0.00 | 0.00 | 55 | 1009.3 |
| 20260504191005 | 76 | 324 | 2.6 | 2.6 | 0.00 | 0.00 | 0.00 | 54 | 1009.3 |
| 20260504190501 | 76 | 344 | 5.2 | 7.8 | 0.00 | 0.00 | 0.00 | 53 | 1009.6 |
| 20260504185958 | 77 | 125 | 3.5 | 4.3 | 0.00 | 0.00 | 0.00 | 54 | 1009.7 |
| 20260504185455 | 77 | 354 | 0.0 | 0.0 | 0.00 | 0.00 | 0.00 | 54 | 1009.6 |
| 20260504184951 | 76 | 15 | 0.9 | 1.7 | 0.00 | 0.00 | 0.00 | 54 | 1009.5 |
| 20260504184447 | 76 | 145 | 6.1 | 7.8 | 0.00 | 0.00 | 0.00 | 53 | 1009.6 |
| 20260504183943 | 76 | 121 | 0.0 | 0.0 | 0.00 | 0.00 | 0.00 | 56 | 1009.6 |
| 20260504183440 | 76 | 122 | 1.7 | 1.7 | 0.00 | 0.00 | 0.00 | 55 | 1009.4 |
| 20260504182938 | 75 | 155 | 0.0 | 0.0 | 0.00 | 0.00 | 0.00 | 55 | 1009.3 |
| 20260504182435 | 75 | 19 | 0.0 | 0.0 | 0.00 | 0.00 | 0.00 | 57 | 1009.5 |
| 20260504181932 | 73 | 196 | 4.3 | 7.0 | 0.00 | 0.00 | 0.00 | 55 | 1009.5 |
| 20260504181429 | 73 | 127 | 3.5 | 5.2 | 0.00 | 0.00 | 0.00 | 57 | 1009.3 |
| 20260504180928 | 75 | 26 | 0.9 | 0.9 | 0.00 | 0.00 | 0.00 | 56 | 1009.5 |
| 20260504180426 | 74 | 172 | 1.7 | 1.7 | 0.00 | 0.00 | 0.00 | 53 | 1009.3 |
| 20260504175924 | 74 | 85 | 0.9 | 0.9 | 0.00 | 0.00 | 0.00 | 55 | 1009.4 |
| 20260504175421 | 74 | 139 | 0.0 | 0.0 | 0.00 | 0.00 | 0.00 | 59 | 1009.4 |
| 20260504174918 | 73 | 144 | 0.0 | 0.0 | 0.00 | 0.00 | 0.00 | 57 | 1009.7 |
| 20260504174416 | 73 | 140 | 1.7 | 2.6 | 0.00 | 0.00 | 0.00 | 60 | 1009.5 |
| 20260504173913 | 72 | 182 | 1.7 | 1.7 | 0.00 | 0.00 | 0.00 | 58 | 1009.8 |
| 20260504173409 | 72 | 226 | 1.7 | 2.6 | 0.00 | 0.00 | 0.00 | 58 | 1009.6 |
| 20260504172907 | 72 | 144 | 2.6 | 2.6 | 0.00 | 0.00 | 0.00 | 61 | 1009.7 |
| 20260504172403 | 72 | 171 | 0.0 | 0.0 | 0.00 | 0.00 | 0.00 | 62 | 1009.6 |
| 20260504171859 | 70 | 95 | 1.7 | 2.6 | 0.00 | 0.00 | 0.00 | 64 | 1009.5 |
| 20260504171356 | 69 | 158 | 2.6 | 2.6 | 0.00 | 0.00 | 0.00 | 64 | 1009.7 |
| 20260504170853 | 69 | 145 | 0.0 | 0.0 | 0.00 | 0.00 | 0.00 | 63 | 1009.6 |
| 20260504170350 | 69 | 135 | 0.0 | 0.0 | 0.00 | 0.00 | 0.00 | 66 | 1009.8 |
| 20260504160309 | 64 | 131 | 0.0 | 0.0 | 0.00 | 0.00 | 0.00 | 71 | 1010.8 |
| 20260504150733 | 59 | 149 | 3.5 | 5.2 | 0.00 | 0.00 | 0.00 | 78 | 1010.4 |
| 20260504150230 | 59 | 177 | 5.2 | 6.1 | 0.00 | 0.00 | 0.00 | 79 | 1010.4 |
| 20260504141200 | 58 | 176 | 0.0 | 0.0 | 0.00 | 0.00 | 0.00 | 80 | 1009.8 |
| 20260504140656 | 57 | 144 | 0.0 | 0.0 | 0.00 | 0.00 | 0.00 | 81 | 1009.7 |
| 20260504140152 | 57 | 170 | 0.0 | 0.0 | 0.00 | 0.00 | 0.00 | 81 | 1009.9 |
| 20260504130620 | 54 | 158 | 2.6 | 2.6 | 0.00 | 0.00 | 0.00 | 79 | 1011.1 |
| 20260504130117 | 54 | 182 | 0.0 | 0.0 | 0.00 | 0.00 | 0.00 | 78 | 1011.3 |
| 20260504110508 | 52 | 126 | 0.0 | 0.0 | 0.00 | 0.00 | 0.00 | 82 | 1011.1 |